| time (UTC) | temp F | wind direction | speed MPH | gust MPH | rain 1hr in | rain 24hr in | rain mn in | humidity % | barometer mb |
| 20260508030904 | 75 | 130 | 3.0 | 7.0 | 0.00 | 0.00 | 0.00 | 72 | 1013.7 |
| 20260508030404 | 76 | 96 | 3.0 | 5.0 | 0.00 | 0.00 | 0.00 | 71 | 1013.6 |
| 20260508025904 | 76 | 97 | 2.0 | 5.0 | 0.00 | 0.00 | 0.00 | 71 | 1013.4 |
| 20260508024904 | 76 | 57 | 1.0 | 5.0 | 0.00 | 0.00 | 0.00 | 71 | 1013.7 |
| 20260508024404 | 76 | 56 | 2.0 | 5.0 | 0.00 | 0.00 | 0.00 | 70 | 1013.6 |
| 20260508023905 | 76 | 74 | 1.0 | 7.0 | 0.00 | 0.00 | 0.00 | 70 | 1013.6 |
| 20260508023404 | 76 | 74 | 2.0 | 7.0 | 0.00 | 0.00 | 0.00 | 70 | 1013.5 |
| 20260508022904 | 76 | 74 | 2.0 | 5.0 | 0.00 | 0.00 | 0.00 | 70 | 1013.5 |
| 20260508022405 | 76 | 84 | 2.0 | 6.0 | 0.00 | 0.00 | 0.00 | 70 | 1013.6 |
| 20260508021905 | 76 | 81 | 3.0 | 6.0 | 0.00 | 0.00 | 0.00 | 70 | 1013.6 |
| 20260508021404 | 76 | 85 | 2.0 | 3.0 | 0.00 | 0.00 | 0.00 | 70 | 1013.5 |
| 20260508020905 | 76 | 89 | 2.0 | 5.0 | 0.00 | 0.00 | 0.00 | 70 | 1013.4 |
| 20260508020404 | 76 | 67 | 3.0 | 8.0 | 0.00 | 0.00 | 0.00 | 70 | 1013.3 |
| 20260508015404 | 76 | 64 | 3.0 | 6.0 | 0.00 | 0.00 | 0.00 | 70 | 1013.4 |
| 20260508014904 | 76 | 63 | 1.0 | 5.0 | 0.00 | 0.00 | 0.00 | 70 | 1013.5 |
| 20260508014404 | 76 | 60 | 3.0 | 5.0 | 0.00 | 0.00 | 0.00 | 69 | 1013.5 |
| 20260508013904 | 76 | 28 | 2.0 | 5.0 | 0.00 | 0.00 | 0.00 | 70 | 1013.5 |
| 20260508013404 | 76 | 19 | 2.0 | 6.0 | 0.00 | 0.00 | 0.00 | 70 | 1013.5 |
| 20260508012905 | 76 | 35 | 3.0 | 6.0 | 0.00 | 0.00 | 0.00 | 70 | 1013.5 |
| 20260508012404 | 76 | 34 | 2.0 | 6.0 | 0.00 | 0.00 | 0.00 | 70 | 1013.4 |
| 20260508011904 | 77 | 37 | 2.0 | 6.0 | 0.00 | 0.00 | 0.00 | 71 | 1013.4 |
| 20260508011404 | 77 | 45 | 1.0 | 5.0 | 0.00 | 0.00 | 0.00 | 71 | 1013.3 |
| 20260508010904 | 77 | 14 | 2.0 | 5.0 | 0.00 | 0.00 | 0.00 | 71 | 1013.2 |
| 20260508010404 | 77 | 54 | 2.0 | 6.0 | 0.00 | 0.00 | 0.00 | 70 | 1013.2 |
| 20260508005904 | 77 | 48 | 2.0 | 6.0 | 0.00 | 0.00 | 0.00 | 71 | 1013.1 |
| 20260508005405 | 77 | 77 | 2.0 | 6.0 | 0.00 | 0.00 | 0.00 | 71 | 1013.1 |
| 20260508004904 | 78 | 50 | 3.0 | 5.0 | 0.00 | 0.00 | 0.00 | 71 | 1013.1 |
| 20260508004404 | 78 | 38 | 1.0 | 3.0 | 0.00 | 0.00 | 0.00 | 71 | 1013.0 |
| 20260508003904 | 78 | 23 | 1.0 | 3.0 | 0.00 | 0.00 | 0.00 | 71 | 1013.1 |
| 20260508003404 | 78 | 30 | 1.0 | 3.0 | 0.00 | 0.00 | 0.00 | 71 | 1013.1 |
| 20260508002904 | 78 | 53 | 2.0 | 3.0 | 0.00 | 0.00 | 0.00 | 70 | 1013.0 |
| 20260508002404 | 78 | 44 | 1.0 | 3.0 | 0.00 | 0.00 | 0.00 | 70 | 1013.1 |
| 20260508001903 | 79 | 64 | 2.0 | 3.0 | 0.00 | 0.00 | 0.00 | 69 | 1013.2 |
| 20260508001404 | 79 | 45 | 1.0 | 3.0 | 0.00 | 0.00 | 0.00 | 69 | 1013.3 |
| 20260508000904 | 79 | 66 | 0.0 | 3.0 | 0.00 | 0.00 | 0.00 | 69 | 1013.2 |
| 20260508000405 | 79 | 67 | 2.0 | 3.0 | 0.00 | 0.00 | 0.00 | 69 | 1013.1 |
| 20260507235405 | 79 | 71 | 1.0 | 7.0 | 0.00 | 0.00 | 0.00 | 69 | 1013.0 |
| 20260507234404 | 80 | 83 | 3.0 | 7.0 | 0.00 | 0.00 | 0.00 | 68 | 1012.8 |
| 20260507233904 | 80 | 78 | 1.0 | 7.0 | 0.00 | 0.00 | 0.00 | 67 | 1012.9 |
| 20260507233404 | 80 | 103 | 2.0 | 7.0 | 0.00 | 0.00 | 0.00 | 67 | 1012.8 |
| 20260507232904 | 81 | 102 | 2.0 | 6.0 | 0.00 | 0.00 | 0.00 | 67 | 1012.6 |
| 20260507232403 | 81 | 54 | 2.0 | 6.0 | 0.00 | 0.00 | 0.00 | 67 | 1012.8 |
| 20260507231405 | 81 | 122 | 1.0 | 6.0 | 0.00 | 0.00 | 0.00 | 66 | 1012.8 |
| 20260507230903 | 81 | 67 | 2.0 | 8.0 | 0.00 | 0.00 | 0.00 | 65 | 1012.9 |
| 20260507230404 | 82 | 84 | 2.0 | 8.0 | 0.00 | 0.00 | 0.00 | 65 | 1012.9 |
| 20260507225904 | 82 | 127 | 2.0 | 6.0 | 0.00 | 0.00 | 0.00 | 64 | 1012.9 |
| 20260507225404 | 83 | 72 | 3.0 | 6.0 | 0.00 | 0.00 | 0.00 | 64 | 1012.9 |
| 20260507224904 | 82 | 36 | 2.0 | 6.0 | 0.00 | 0.00 | 0.00 | 64 | 1012.9 |
| 20260507224403 | 83 | 114 | 3.0 | 6.0 | 0.00 | 0.00 | 0.00 | 63 | 1012.9 |
| 20260507223904 | 83 | 53 | 2.0 | 6.0 | 0.00 | 0.00 | 0.00 | 63 | 1012.8 |
| 20260507223404 | 83 | 75 | 2.0 | 6.0 | 0.00 | 0.00 | 0.00 | 63 | 1012.8 |
| 20260507222904 | 83 | 61 | 2.0 | 6.0 | 0.00 | 0.00 | 0.00 | 62 | 1012.8 |
| 20260507222404 | 83 | 42 | 2.0 | 10.0 | 0.00 | 0.00 | 0.00 | 63 | 1012.8 |
| 20260507221905 | 83 | 66 | 4.0 | 10.0 | 0.00 | 0.00 | 0.00 | 62 | 1012.8 |
| 20260507221404 | 83 | 98 | 3.0 | 5.0 | 0.00 | 0.00 | 0.00 | 63 | 1012.9 |
| 20260507220904 | 83 | 119 | 2.0 | 5.0 | 0.00 | 0.00 | 0.00 | 63 | 1012.9 |
| 20260507220404 | 82 | 51 | 2.0 | 5.0 | 0.00 | 0.00 | 0.00 | 64 | 1012.9 |
| 20260507215905 | 83 | 68 | 3.0 | 5.0 | 0.00 | 0.00 | 0.00 | 65 | 1012.9 |
| 20260507215404 | 82 | 22 | 3.0 | 7.0 | 0.00 | 0.00 | 0.00 | 63 | 1012.8 |
| 20260507214904 | 83 | 11 | 3.0 | 7.0 | 0.00 | 0.00 | 0.00 | 62 | 1012.9 |
| 20260507214405 | 83 | 65 | 3.0 | 7.0 | 0.00 | 0.00 | 0.00 | 62 | 1012.8 |
| 20260507213404 | 84 | 6 | 2.0 | 8.0 | 0.00 | 0.00 | 0.00 | 61 | 1012.7 |
| 20260507212905 | 84 | 24 | 3.0 | 9.0 | 0.00 | 0.00 | 0.00 | 60 | 1012.9 |
| 20260507212404 | 84 | 48 | 3.0 | 9.0 | 0.00 | 0.00 | 0.00 | 60 | 1013.0 |
| 20260507211903 | 84 | 82 | 3.0 | 9.0 | 0.00 | 0.00 | 0.00 | 61 | 1013.1 |
| 20260507211404 | 84 | 78 | 4.0 | 9.0 | 0.00 | 0.00 | 0.00 | 60 | 1013.2 |
| 20260507210905 | 84 | 58 | 4.0 | 9.0 | 0.00 | 0.00 | 0.00 | 61 | 1013.3 |
| 20260507210405 | 84 | 20 | 3.0 | 9.0 | 0.00 | 0.00 | 0.00 | 62 | 1013.3 |
| 20260507205904 | 83 | 56 | 3.0 | 9.0 | 0.00 | 0.00 | 0.00 | 61 | 1013.3 |
| 20260507204904 | 82 | 39 | 6.0 | 10.0 | 0.00 | 0.00 | 0.00 | 64 | 1013.5 |
| 20260507204404 | 81 | 350 | 4.0 | 10.0 | 0.00 | 0.00 | 0.00 | 64 | 1013.6 |
| 20260507203903 | 80 | 33 | 5.0 | 9.0 | 0.00 | 0.00 | 0.00 | 69 | 1013.5 |
| 20260507202904 | 79 | 32 | 3.0 | 9.0 | 0.00 | 0.00 | 0.00 | 69 | 1013.7 |
| 20260507202403 | 78 | 57 | 2.0 | 10.0 | 0.00 | 0.00 | 0.00 | 69 | 1013.7 |
| 20260507201903 | 78 | 1 | 5.0 | 10.0 | 0.00 | 0.00 | 0.00 | 67 | 1013.8 |
| 20260507201404 | 78 | 354 | 3.0 | 10.0 | 0.00 | 0.00 | 0.00 | 66 | 1014.0 |
| 20260507200905 | 79 | 10 | 3.0 | 10.0 | 0.00 | 0.00 | 0.00 | 67 | 1014.1 |
| 20260507200404 | 79 | 3 | 4.0 | 10.0 | 0.00 | 0.00 | 0.00 | 67 | 1014.2 |
| 20260507195904 | 79 | 54 | 3.0 | 8.0 | 0.00 | 0.00 | 0.00 | 67 | 1014.1 |
| 20260507195404 | 79 | 0 | 4.0 | 9.0 | 0.00 | 0.00 | 0.00 | 67 | 1014.1 |
| 20260507194905 | 78 | 30 | 3.0 | 9.0 | 0.00 | 0.00 | 0.00 | 67 | 1014.2 |
| 20260507193404 | 78 | 340 | 2.0 | 9.0 | 0.00 | 0.00 | 0.00 | 68 | 1014.2 |
| 20260507192904 | 78 | 18 | 4.0 | 9.0 | 0.00 | 0.00 | 0.00 | 68 | 1014.3 |
| 20260507191405 | 77 | 22 | 3.0 | 8.0 | 0.00 | 0.00 | 0.00 | 68 | 1014.6 |
| 20260507190904 | 78 | 25 | 4.0 | 8.0 | 0.00 | 0.00 | 0.00 | 66 | 1014.6 |
| 20260507190404 | 78 | 43 | 2.0 | 8.0 | 0.00 | 0.00 | 0.00 | 68 | 1014.6 |
| 20260507185404 | 77 | 24 | 2.0 | 10.0 | 0.00 | 0.00 | 0.00 | 68 | 1014.6 |
| 20260507184904 | 76 | 356 | 3.0 | 10.0 | 0.00 | 0.00 | 0.00 | 71 | 1014.7 |
| 20260507184404 | 75 | 60 | 3.0 | 9.0 | 0.00 | 0.00 | 0.00 | 71 | 1014.7 |
| 20260507183905 | 75 | 40 | 5.0 | 10.0 | 0.00 | 0.00 | 0.00 | 71 | 1014.8 |
| 20260507183404 | 75 | 54 | 5.0 | 10.0 | 0.00 | 0.00 | 0.00 | 71 | 1014.8 |
| 20260507182904 | 74 | 23 | 6.0 | 10.0 | 0.00 | 0.00 | 0.00 | 72 | 1014.8 |
| 20260507182404 | 74 | 36 | 6.0 | 9.0 | 0.00 | 0.00 | 0.00 | 72 | 1014.9 |
| 20260507181904 | 73 | 358 | 2.0 | 9.0 | 0.00 | 0.00 | 0.00 | 72 | 1014.9 |
| 20260507181404 | 73 | 12 | 4.0 | 9.0 | 0.00 | 0.00 | 0.00 | 73 | 1015.0 |
| 20260507180904 | 72 | 9 | 3.0 | 7.0 | 0.00 | 0.00 | 0.00 | 74 | 1015.0 |
| 20260507180404 | 72 | 59 | 3.0 | 8.0 | 0.00 | 0.00 | 0.00 | 74 | 1015.1 |
| 20260507175904 | 71 | 46 | 3.0 | 8.0 | 0.00 | 0.00 | 0.00 | 75 | 1015.2 |
| 20260507175404 | 71 | 339 | 3.0 | 8.0 | 0.00 | 0.00 | 0.00 | 74 | 1015.3 |
| 20260507174904 | 71 | 58 | 3.0 | 8.0 | 0.00 | 0.00 | 0.00 | 74 | 1015.4 |
| 20260507174404 | 70 | 15 | 5.0 | 12.0 | 0.00 | 0.00 | 0.00 | 74 | 1015.4 |
| 20260507173404 | 70 | 14 | 5.0 | 12.0 | 0.00 | 0.00 | 0.00 | 74 | 1015.5 |
| 20260507172905 | 70 | 344 | 5.0 | 8.0 | 0.00 | 0.00 | 0.00 | 74 | 1015.5 |
| 20260507172404 | 70 | 22 | 3.0 | 8.0 | 0.00 | 0.00 | 0.00 | 75 | 1015.6 |
| 20260507171905 | 70 | 47 | 4.0 | 10.0 | 0.00 | 0.00 | 0.00 | 75 | 1015.6 |
| 20260507171404 | 70 | 63 | 2.0 | 10.0 | 0.00 | 0.00 | 0.00 | 75 | 1015.6 |
| 20260507170904 | 70 | 16 | 5.0 | 10.0 | 0.00 | 0.00 | 0.00 | 75 | 1015.7 |
| 20260507170404 | 70 | 2 | 5.0 | 9.0 | 0.00 | 0.00 | 0.00 | 76 | 1015.6 |
| 20260507165904 | 69 | 59 | 3.0 | 9.0 | 0.00 | 0.00 | 0.00 | 76 | 1015.5 |
| 20260507165404 | 69 | 354 | 3.0 | 10.0 | 0.00 | 0.00 | 0.00 | 77 | 1015.5 |
| 20260507164403 | 68 | 4 | 2.0 | 10.0 | 0.00 | 0.00 | 0.00 | 78 | 1015.4 |
| 20260507163904 | 67 | 47 | 3.0 | 10.0 | 0.00 | 0.00 | 0.00 | 79 | 1015.5 |
| 20260507163404 | 67 | 11 | 3.0 | 9.0 | 0.00 | 0.00 | 0.00 | 79 | 1015.6 |
| 20260507162905 | 67 | 19 | 5.0 | 9.0 | 0.00 | 0.00 | 0.00 | 79 | 1015.6 |
| 20260507162404 | 66 | 51 | 4.0 | 9.0 | 0.00 | 0.00 | 0.00 | 79 | 1015.6 |
| 20260507161904 | 66 | 13 | 5.0 | 12.0 | 0.00 | 0.00 | 0.00 | 79 | 1015.5 |
| 20260507161404 | 66 | 26 | 4.0 | 12.0 | 0.00 | 0.00 | 0.00 | 79 | 1015.5 |
| 20260507160905 | 66 | 27 | 4.0 | 12.0 | 0.00 | 0.00 | 0.00 | 80 | 1015.5 |
| 20260507155904 | 66 | 14 | 5.0 | 10.0 | 0.00 | 0.00 | 0.00 | 80 | 1015.4 |
| 20260507155405 | 66 | 2 | 4.0 | 9.0 | 0.00 | 0.00 | 0.00 | 80 | 1015.6 |
| 20260507154904 | 66 | 34 | 3.0 | 12.0 | 0.00 | 0.00 | 0.00 | 80 | 1015.8 |
| 20260507154404 | 66 | 21 | 6.0 | 12.0 | 0.00 | 0.00 | 0.00 | 80 | 1015.8 |
| 20260507153904 | 66 | 13 | 3.0 | 9.0 | 0.00 | 0.00 | 0.00 | 80 | 1015.8 |
| 20260507153404 | 66 | 31 | 3.0 | 13.0 | 0.00 | 0.00 | 0.00 | 80 | 1015.8 |
| 20260507152904 | 66 | 41 | 3.0 | 13.0 | 0.00 | 0.00 | 0.00 | 80 | 1015.7 |
| 20260507152404 | 66 | 5 | 5.0 | 10.0 | 0.00 | 0.00 | 0.00 | 80 | 1015.6 |
| 20260507151904 | 66 | 12 | 3.0 | 12.0 | 0.00 | 0.00 | 0.00 | 80 | 1015.7 |
| 20260507150904 | 66 | 349 | 7.0 | 12.0 | 0.00 | 0.00 | 0.00 | 79 | 1015.6 |
| 20260507150403 | 66 | 26 | 6.0 | 12.0 | 0.00 | 0.00 | 0.00 | 79 | 1015.4 |
| 20260507145904 | 66 | 32 | 3.0 | 12.0 | 0.00 | 0.00 | 0.00 | 79 | 1015.3 |
| 20260507145405 | 66 | 21 | 4.0 | 12.0 | 0.00 | 0.00 | 0.00 | 79 | 1015.4 |
| 20260507144904 | 66 | 2 | 5.0 | 12.0 | 0.00 | 0.00 | 0.00 | 79 | 1015.5 |
| 20260507144404 | 66 | 17 | 4.0 | 12.0 | 0.00 | 0.00 | 0.00 | 79 | 1015.4 |
| 20260507143405 | 67 | 12 | 5.0 | 14.0 | 0.00 | 0.00 | 0.00 | 79 | 1015.3 |
| 20260507142404 | 67 | 25 | 4.0 | 14.0 | 0.00 | 0.00 | 0.00 | 79 | 1015.2 |
| 20260507141904 | 67 | 21 | 5.0 | 12.0 | 0.00 | 0.00 | 0.00 | 79 | 1015.3 |
| 20260507141403 | 67 | 17 | 6.0 | 12.0 | 0.00 | 0.00 | 0.00 | 80 | 1015.0 |
| 20260507140904 | 66 | 17 | 5.0 | 12.0 | 0.00 | 0.00 | 0.00 | 81 | 1015.0 |
| 20260507135903 | 66 | 41 | 3.0 | 9.0 | 0.00 | 0.00 | 0.00 | 82 | 1015.1 |
| 20260507135404 | 66 | 44 | 2.0 | 10.0 | 0.00 | 0.00 | 0.00 | 81 | 1015.4 |
| 20260507134905 | 66 | 23 | 6.0 | 12.0 | 0.00 | 0.00 | 0.00 | 81 | 1015.5 |
| 20260507134404 | 66 | 7 | 5.0 | 12.0 | 0.00 | 0.00 | 0.00 | 81 | 1015.6 |
| 20260507133904 | 66 | 14 | 2.0 | 12.0 | 0.00 | 0.00 | 0.00 | 81 | 1015.5 |
| 20260507133404 | 65 | 32 | 6.0 | 12.0 | 0.00 | 0.00 | 0.00 | 81 | 1015.6 |
| 20260507132905 | 66 | 34 | 7.0 | 12.0 | 0.00 | 0.00 | 0.00 | 81 | 1015.7 |
| 20260507132404 | 66 | 19 | 6.0 | 12.0 | 0.00 | 0.00 | 0.00 | 81 | 1015.6 |
| 20260507131906 | 66 | 3 | 6.0 | 12.0 | 0.00 | 0.00 | 0.00 | 81 | 1015.4 |
| 20260507131404 | 66 | 21 | 6.0 | 12.0 | 0.00 | 0.00 | 0.00 | 81 | 1015.3 |
| 20260507130904 | 66 | 14 | 6.0 | 10.0 | 0.00 | 0.00 | 0.00 | 81 | 1015.2 |
| 20260507130404 | 66 | 13 | 5.0 | 10.0 | 0.00 | 0.00 | 0.00 | 81 | 1015.2 |
| 20260507125905 | 66 | 358 | 5.0 | 9.0 | 0.00 | 0.00 | 0.00 | 81 | 1015.2 |
| 20260507125404 | 67 | 38 | 3.0 | 10.0 | 0.00 | 0.00 | 0.00 | 81 | 1015.1 |
| 20260507124904 | 67 | 356 | 4.0 | 12.0 | 0.00 | 0.00 | 0.00 | 81 | 1014.8 |
| 20260507124403 | 67 | 9 | 6.0 | 12.0 | 0.00 | 0.00 | 0.00 | 81 | 1014.6 |
| 20260507123904 | 67 | 8 | 5.0 | 10.0 | 0.00 | 0.00 | 0.00 | 81 | 1014.4 |
| 20260507123405 | 67 | 12 | 5.0 | 12.0 | 0.00 | 0.00 | 0.00 | 81 | 1014.5 |
| 20260507122904 | 67 | 40 | 5.0 | 12.0 | 0.00 | 0.00 | 0.00 | 81 | 1014.4 |
| 20260507122404 | 67 | 11 | 3.0 | 10.0 | 0.00 | 0.00 | 0.00 | 81 | 1014.4 |
| 20260507121904 | 67 | 0 | 3.0 | 10.0 | 0.00 | 0.00 | 0.00 | 81 | 1014.3 |
| 20260507121405 | 67 | 341 | 3.0 | 8.0 | 0.00 | 0.00 | 0.00 | 81 | 1014.2 |
| 20260507120905 | 67 | 338 | 3.0 | 10.0 | 0.00 | 0.00 | 0.00 | 81 | 1014.1 |
| 20260507120404 | 67 | 358 | 6.0 | 10.0 | 0.00 | 0.00 | 0.00 | 81 | 1014.0 |
| 20260507115404 | 67 | 23 | 4.0 | 8.0 | 0.00 | 0.00 | 0.00 | 81 | 1013.9 |
| 20260507114404 | 68 | 18 | 4.0 | 8.0 | 0.00 | 0.00 | 0.00 | 82 | 1013.7 |
| 20260507113404 | 68 | 13 | 2.0 | 10.0 | 0.00 | 0.00 | 0.00 | 82 | 1013.3 |
| 20260507112904 | 68 | 3 | 3.0 | 10.0 | 0.00 | 0.00 | 0.00 | 81 | 1013.3 |
| 20260507111405 | 68 | 358 | 3.0 | 8.0 | 0.00 | 0.00 | 0.00 | 81 | 1013.3 |
| 20260507110904 | 68 | 3 | 3.0 | 9.0 | 0.00 | 0.00 | 0.00 | 81 | 1013.4 |
| 20260507110404 | 68 | 354 | 5.0 | 10.0 | 0.00 | 0.00 | 0.00 | 81 | 1013.3 |
| 20260507105904 | 69 | 342 | 5.0 | 10.0 | 0.00 | 0.00 | 0.00 | 82 | 1013.4 |
| 20260507104904 | 69 | 31 | 2.0 | 9.0 | 0.00 | 0.00 | 0.00 | 82 | 1013.2 |
| 20260507104404 | 69 | 28 | 5.0 | 9.0 | 0.00 | 0.00 | 0.00 | 82 | 1013.2 |
| 20260507103904 | 69 | 11 | 4.0 | 9.0 | 0.00 | 0.00 | 0.00 | 82 | 1013.2 |
| 20260507103405 | 69 | 37 | 4.0 | 8.0 | 0.00 | 0.00 | 0.00 | 82 | 1013.3 |
| 20260507102904 | 69 | 18 | 2.0 | 8.0 | 0.00 | 0.00 | 0.00 | 82 | 1013.0 |
| 20260507102404 | 69 | 352 | 2.0 | 8.0 | 0.00 | 0.00 | 0.00 | 81 | 1012.9 |
| 20260507101905 | 69 | 13 | 5.0 | 8.0 | 0.00 | 0.00 | 0.00 | 81 | 1012.8 |
| 20260507100904 | 69 | 358 | 3.0 | 13.0 | 0.00 | 0.00 | 0.00 | 81 | 1012.8 |
| 20260507100403 | 69 | 12 | 5.0 | 13.0 | 0.00 | 0.00 | 0.00 | 81 | 1012.5 |
| 20260507095905 | 69 | 355 | 5.0 | 12.0 | 0.00 | 0.00 | 0.00 | 82 | 1012.6 |
| 20260507095404 | 69 | 21 | 3.0 | 12.0 | 0.00 | 0.00 | 0.00 | 81 | 1012.7 |
| 20260507094904 | 69 | 18 | 6.0 | 12.0 | 0.00 | 0.00 | 0.00 | 81 | 1012.6 |
| 20260507094404 | 70 | 1 | 5.0 | 12.0 | 0.00 | 0.00 | 0.00 | 81 | 1012.7 |
| 20260507093904 | 70 | 9 | 7.0 | 12.0 | 0.00 | 0.00 | 0.00 | 81 | 1012.5 |
| 20260507091904 | 70 | 45 | 2.0 | 12.0 | 0.00 | 0.00 | 0.00 | 81 | 1012.6 |
| 20260507091404 | 70 | 1 | 6.0 | 12.0 | 0.00 | 0.00 | 0.00 | 81 | 1012.5 |
| 20260507090904 | 70 | 16 | 3.0 | 9.0 | 0.00 | 0.00 | 0.00 | 81 | 1012.5 |
| 20260507090403 | 70 | 357 | 4.0 | 10.0 | 0.00 | 0.00 | 0.00 | 81 | 1012.4 |
| 20260507085404 | 70 | 27 | 5.0 | 12.0 | 0.00 | 0.00 | 0.00 | 81 | 1012.2 |
| 20260507084404 | 71 | 8 | 2.0 | 10.0 | 0.00 | 0.00 | 0.00 | 81 | 1012.2 |
| 20260507083404 | 71 | 353 | 7.0 | 12.0 | 0.00 | 0.00 | 0.00 | 80 | 1012.0 |
| 20260507082904 | 71 | 53 | 5.0 | 15.0 | 0.00 | 0.00 | 0.00 | 80 | 1012.0 |
| 20260507082404 | 71 | 47 | 7.0 | 15.0 | 0.00 | 0.00 | 0.00 | 80 | 1012.0 |
| 20260507081404 | 71 | 0 | 5.0 | 12.0 | 0.00 | 0.00 | 0.00 | 81 | 1012.2 |
| 20260507080904 | 72 | 5 | 5.0 | 12.0 | 0.00 | 0.00 | 0.00 | 81 | 1012.3 |
| 20260507080404 | 72 | 5 | 6.0 | 12.0 | 0.00 | 0.00 | 0.00 | 81 | 1012.1 |
| 20260507075904 | 72 | 13 | 3.0 | 12.0 | 0.00 | 0.00 | 0.00 | 81 | 1012.0 |
| 20260507075404 | 72 | 10 | 6.0 | 13.0 | 0.00 | 0.00 | 0.00 | 81 | 1012.1 |
| 20260507074904 | 72 | 31 | 6.0 | 13.0 | 0.00 | 0.00 | 0.00 | 81 | 1012.1 |
| 20260507074404 | 72 | 17 | 5.0 | 12.0 | 0.00 | 0.00 | 0.00 | 81 | 1012.2 |
| 20260507073904 | 72 | 345 | 5.0 | 12.0 | 0.00 | 0.00 | 0.00 | 81 | 1012.2 |
| 20260507073404 | 72 | 6 | 6.0 | 12.0 | 0.00 | 0.00 | 0.00 | 81 | 1012.2 |
| 20260507072904 | 72 | 24 | 6.0 | 12.0 | 0.00 | 0.00 | 0.00 | 81 | 1012.3 |
| 20260507072403 | 72 | 20 | 3.0 | 12.0 | 0.00 | 0.00 | 0.00 | 81 | 1012.4 |
| 20260507071904 | 72 | 5 | 6.0 | 12.0 | 0.00 | 0.00 | 0.00 | 81 | 1012.4 |
| 20260507071404 | 73 | 10 | 3.0 | 10.0 | 0.00 | 0.00 | 0.00 | 80 | 1012.4 |
| 20260507070404 | 73 | 359 | 6.0 | 14.0 | 0.00 | 0.00 | 0.00 | 80 | 1012.4 |
| 20260507065904 | 73 | 18 | 7.0 | 14.0 | 0.00 | 0.00 | 0.00 | 80 | 1012.4 |
| 20260507065404 | 73 | 15 | 6.0 | 12.0 | 0.00 | 0.00 | 0.00 | 80 | 1012.4 |
| 20260507064404 | 73 | 6 | 4.0 | 12.0 | 0.00 | 0.00 | 0.00 | 80 | 1012.3 |
| 20260507063904 | 73 | 349 | 5.0 | 12.0 | 0.00 | 0.00 | 0.00 | 80 | 1012.3 |
| 20260507063405 | 73 | 346 | 3.0 | 14.0 | 0.00 | 0.00 | 0.00 | 80 | 1012.4 |
| 20260507062904 | 74 | 10 | 6.0 | 14.0 | 0.00 | 0.00 | 0.00 | 80 | 1012.4 |
| 20260507062404 | 74 | 8 | 3.0 | 12.0 | 0.00 | 0.00 | 0.00 | 81 | 1012.4 |
| 20260507061905 | 74 | 11 | 3.0 | 12.0 | 0.00 | 0.00 | 0.00 | 81 | 1012.3 |
| 20260507061405 | 74 | 355 | 6.0 | 12.0 | 0.00 | 0.00 | 0.00 | 81 | 1012.3 |
| 20260507060904 | 74 | 36 | 5.0 | 12.0 | 0.00 | 0.00 | 0.00 | 81 | 1012.2 |
| 20260507060404 | 74 | 38 | 4.0 | 10.0 | 0.00 | 0.00 | 0.00 | 81 | 1012.0 |
| 20260507055904 | 74 | 0 | 5.0 | 10.0 | 0.00 | 0.00 | 0.00 | 80 | 1011.9 |
| 20260507055405 | 74 | 9 | 6.0 | 12.0 | 0.00 | 0.00 | 0.00 | 80 | 1011.9 |
| 20260507054904 | 74 | 3 | 6.0 | 12.0 | 0.00 | 0.00 | 0.00 | 81 | 1011.9 |
| 20260507053404 | 74 | 24 | 4.0 | 10.0 | 0.00 | 0.00 | 0.00 | 82 | 1012.0 |
| 20260507052904 | 75 | 11 | 4.0 | 10.0 | 0.00 | 0.00 | 0.00 | 82 | 1012.1 |
| 20260507052404 | 75 | 21 | 4.0 | 10.0 | 0.00 | 0.00 | 0.00 | 82 | 1012.0 |
| 20260507051903 | 75 | 25 | 3.0 | 10.0 | 0.00 | 0.00 | 0.00 | 82 | 1012.0 |
| 20260507051405 | 75 | 7 | 2.0 | 7.0 | 0.00 | 0.00 | 0.00 | 83 | 1011.9 |
| 20260507050403 | 75 | 9 | 5.0 | 10.0 | 0.00 | 0.00 | 0.00 | 83 | 1011.9 |
| 20260507045905 | 75 | 16 | 4.0 | 8.0 | 0.00 | 0.00 | 0.00 | 83 | 1012.0 |
| 20260507045404 | 75 | 18 | 2.0 | 9.0 | 0.00 | 0.00 | 0.00 | 83 | 1012.0 |
| 20260507044904 | 75 | 8 | 6.0 | 9.0 | 0.00 | 0.00 | 0.00 | 83 | 1012.0 |
| 20260507044404 | 76 | 5 | 2.0 | 10.0 | 0.00 | 0.00 | 0.00 | 83 | 1012.0 |
| 20260507043904 | 76 | 349 | 5.0 | 12.0 | 0.00 | 0.00 | 0.00 | 82 | 1012.0 |
| 20260507042904 | 76 | 349 | 4.0 | 10.0 | 0.00 | 0.00 | 0.00 | 82 | 1012.2 |
| 20260507042403 | 76 | 318 | 5.0 | 12.0 | 0.00 | 0.00 | 0.00 | 81 | 1012.1 |
| 20260507041904 | 77 | 315 | 2.0 | 12.0 | 0.00 | 0.00 | 0.00 | 81 | 1012.0 |
| 20260507041404 | 77 | 351 | 3.0 | 12.0 | 0.00 | 0.00 | 0.00 | 81 | 1011.9 |
| 20260507040904 | 78 | 345 | 3.0 | 12.0 | 0.00 | 0.00 | 0.00 | 82 | 1011.8 |
| 20260507040404 | 78 | 335 | 3.0 | 10.0 | 0.00 | 0.00 | 0.00 | 83 | 1011.6 |
| 20260507035405 | 79 | 181 | 0.0 | 0.0 | 0.00 | 0.00 | 0.00 | 85 | 1011.4 |
| 20260507034405 | 79 | 181 | 0.0 | 0.0 | 0.00 | 0.00 | 0.00 | 85 | 1011.3 |
| 20260507033905 | 79 | 181 | 0.0 | 0.0 | 0.00 | 0.00 | 0.00 | 85 | 1011.3 |
| 20260507033404 | 79 | 181 | 0.0 | 0.0 | 0.00 | 0.00 | 0.00 | 85 | 1011.3 |
| 20260507032404 | 79 | 181 | 0.0 | 0.0 | 0.00 | 0.00 | 0.00 | 85 | 1011.0 |
| 20260507031905 | 79 | 181 | 0.0 | 2.0 | 0.00 | 0.00 | 0.00 | 85 | 1010.9 |
| 20260507031405 | 79 | 181 | 0.0 | 2.0 | 0.00 | 0.00 | 0.00 | 85 | 1010.9 |